Time,TemperatureF,DewpointF,PressureIn,WindDirection,WindDirectionDegrees,WindSpeedMPH,WindSpeedGustMPH,Humidity,HourlyPrecipIn,Conditions,Clouds,dailyrainin,SoftwareType,DateUTC
2013-05-28 00:01:00,54.0,40.0,-100.00,SW,232,4.0,7.0,60,-99.99,,,-99.99,,2013-05-28 07:01:00,
2013-05-28 00:11:00,54.0,43.0,-100.00,SSE,165,0.0,4.0,65,-99.99,,,-99.99,,2013-05-28 07:11:00,
2013-05-28 00:21:00,53.0,43.0,-100.00,ESE,102,0.0,2.0,67,-99.99,,,-99.99,,2013-05-28 07:21:00,
2013-05-28 00:32:00,52.0,42.0,-100.00,SW,217,3.0,7.0,69,-99.99,,,-99.99,,2013-05-28 07:32:00,
2013-05-28 00:42:00,52.0,42.0,-100.00,SW,217,3.0,7.0,69,-99.99,,,-99.99,,2013-05-28 07:42:00,
2013-05-28 00:52:00,52.0,42.0,-100.00,SW,217,3.0,7.0,69,-99.99,,,-99.99,,2013-05-28 07:52:00,
2013-05-28 01:02:00,52.0,43.0,-100.00,SW,216,3.0,8.0,70,-99.99,,,-99.99,,2013-05-28 08:02:00,
2013-05-28 01:11:00,52.0,43.0,-100.00,SW,216,3.0,8.0,70,-99.99,,,-99.99,,2013-05-28 08:11:00,
2013-05-28 01:21:00,52.0,43.0,-100.00,WNW,289,3.0,7.0,71,-99.99,,,-99.99,,2013-05-28 08:21:00,
2013-05-28 01:32:00,51.0,44.0,-100.00,NNE,21,3.0,5.0,76,-99.99,,,-99.99,,2013-05-28 08:32:00,
2013-05-28 01:42:00,51.0,44.0,-100.00,NNE,21,3.0,5.0,76,-99.99,,,-99.99,,2013-05-28 08:42:00,
2013-05-28 01:51:00,50.0,43.0,-100.00,NNW,344,5.0,8.0,77,-99.99,,,-99.99,,2013-05-28 08:51:00,
2013-05-28 02:01:00,50.0,43.0,-100.00,North,356,4.0,8.0,77,-99.99,,,-99.99,,2013-05-28 09:01:00,
2013-05-28 02:11:00,51.0,43.0,-100.00,North,350,4.0,8.0,74,-99.99,,,-99.99,,2013-05-28 09:11:00,
2013-05-28 02:21:00,51.0,43.0,-100.00,North,359,3.0,5.0,75,-99.99,,,-99.99,,2013-05-28 09:21:00,
2013-05-28 02:33:00,50.0,44.0,-100.00,NNW,340,5.0,7.0,79,-99.99,,,-99.99,,2013-05-28 09:33:00,
2013-05-28 02:41:00,51.0,42.0,-100.00,ESE,106,4.0,13.0,71,-99.99,,,-99.99,,2013-05-28 09:41:00,
2013-05-28 02:42:00,51.0,43.0,-100.00,North,349,5.0,7.0,75,-99.99,,,-99.99,,2013-05-28 09:42:00,
2013-05-28 02:53:00,50.0,43.0,-100.00,East,89,1.0,4.0,76,-99.99,,,-99.99,,2013-05-28 09:53:00,
2013-05-28 03:03:00,50.0,43.0,-100.00,East,89,1.0,4.0,76,-99.99,,,-99.99,,2013-05-28 10:03:00,
2013-05-28 03:12:00,50.0,43.0,-100.00,East,89,1.0,4.0,76,-99.99,,,-99.99,,2013-05-28 10:12:00,
2013-05-28 03:22:00,51.0,42.0,-100.00,ESE,106,4.0,13.0,71,-99.99,,,-99.99,,2013-05-28 10:22:00,
2013-05-28 03:32:00,51.0,42.0,-100.00,ESE,106,4.0,13.0,71,-99.99,,,-99.99,,2013-05-28 10:32:00,
2013-05-28 03:53:00,50.0,43.0,-100.00,North,356,5.0,11.0,78,-99.99,,,-99.99,,2013-05-28 10:53:00,
2013-05-28 04:02:00,50.0,43.0,-100.00,North,356,5.0,11.0,78,-99.99,,,-99.99,,2013-05-28 11:02:00,
2013-05-28 04:11:00,50.0,44.0,-100.00,NNW,344,4.0,11.0,80,-99.99,,,-99.99,,2013-05-28 11:11:00,
2013-05-28 04:22:00,50.0,44.0,-100.00,NNW,344,4.0,11.0,80,-99.99,,,-99.99,,2013-05-28 11:22:00,
2013-05-28 04:32:00,50.0,45.0,-100.00,NW,326,6.0,12.0,84,-99.99,,,-99.99,,2013-05-28 11:32:00,
2013-05-28 04:42:00,50.0,45.0,-100.00,NW,326,6.0,12.0,84,-99.99,,,-99.99,,2013-05-28 11:42:00,
2013-05-28 04:52:00,50.0,45.0,-100.00,NW,326,6.0,12.0,84,-99.99,,,-99.99,,2013-05-28 11:52:00,
2013-05-28 05:01:00,50.0,44.0,-100.00,NW,304,4.0,14.0,78,-99.99,,,-99.99,,2013-05-28 12:01:00,
2013-05-28 05:11:00,50.0,45.0,-100.00,NNW,340,6.0,11.0,82,-99.99,,,-99.99,,2013-05-28 12:11:00,
2013-05-28 05:21:00,51.0,45.0,-100.00,NNE,14,3.0,7.0,79,-99.99,,,-99.99,,2013-05-28 12:21:00,
2013-05-28 05:31:00,50.0,45.0,-100.00,NNW,346,3.0,9.0,83,-99.99,,,-99.99,,2013-05-28 12:31:00,
2013-05-28 05:42:00,50.0,45.0,-100.00,NNW,346,3.0,9.0,83,-99.99,,,-99.99,,2013-05-28 12:42:00,
2013-05-28 05:52:00,50.0,45.0,-100.00,NNW,346,3.0,9.0,83,-99.99,,,-99.99,,2013-05-28 12:52:00,
2013-05-28 06:01:00,51.0,43.0,-100.00,North,6,2.0,9.0,75,-99.99,,,-99.99,,2013-05-28 13:01:00,
2013-05-28 06:11:00,52.0,42.0,-100.00,North,4,3.0,10.0,68,-99.99,,,-99.99,,2013-05-28 13:11:00,
2013-05-28 06:21:00,52.0,42.0,-100.00,North,4,3.0,10.0,68,-99.99,,,-99.99,,2013-05-28 13:21:00,
2013-05-28 06:32:00,52.0,41.0,-100.00,NNW,335,6.0,11.0,67,-99.99,,,-99.99,,2013-05-28 13:32:00,
2013-05-28 06:42:00,51.0,41.0,-100.00,NNW,340,6.0,11.0,68,-99.99,,,-99.99,,2013-05-28 13:42:00,
2013-05-28 06:52:00,51.0,41.0,-100.00,NNW,340,6.0,11.0,68,-99.99,,,-99.99,,2013-05-28 13:52:00,
2013-05-28 07:11:00,53.0,40.0,-100.00,SSW,205,5.0,13.0,62,-99.99,,,-99.99,,2013-05-28 14:11:00,
2013-05-28 07:21:00,53.0,40.0,-100.00,SSW,205,5.0,13.0,62,-99.99,,,-99.99,,2013-05-28 14:21:00,
2013-05-28 07:32:00,54.0,38.0,-100.00,NNW,336,2.0,7.0,53,-99.99,,,-99.99,,2013-05-28 14:32:00,
2013-05-28 07:42:00,54.0,38.0,-100.00,NNW,336,2.0,7.0,53,-99.99,,,-99.99,,2013-05-28 14:42:00,
2013-05-28 07:52:00,57.0,38.0,-100.00,NNE,24,1.0,5.0,49,-99.99,,,-99.99,,2013-05-28 14:52:00,
2013-05-28 08:01:00,56.0,39.0,-100.00,NNE,32,2.0,6.0,53,-99.99,,,-99.99,,2013-05-28 15:01:00,
2013-05-28 08:11:00,55.0,37.0,-100.00,NNE,20,1.0,6.0,51,-99.99,,,-99.99,,2013-05-28 15:11:00,
2013-05-28 08:21:00,55.0,41.0,-100.00,NNW,343,2.0,6.0,59,-99.99,,,-99.99,,2013-05-28 15:21:00,
2013-05-28 08:32:00,56.0,38.0,-100.00,WNW,291,1.0,5.0,50,-99.99,,,-99.99,,2013-05-28 15:32:00,
2013-05-28 08:43:00,56.0,38.0,-100.00,SW,227,2.0,8.0,50,-99.99,,,-99.99,,2013-05-28 15:43:00,
2013-05-28 08:52:00,56.0,38.0,-100.00,SW,227,2.0,8.0,50,-99.99,,,-99.99,,2013-05-28 15:52:00,
2013-05-28 09:03:00,57.0,40.0,-100.00,SSW,202,5.0,10.0,52,-99.99,,,-99.99,,2013-05-28 16:03:00,
2013-05-28 09:12:00,57.0,40.0,-100.00,SSW,202,5.0,10.0,52,-99.99,,,-99.99,,2013-05-28 16:12:00,
2013-05-28 09:22:00,56.0,36.0,-100.00,WSW,239,7.0,15.0,46,-99.99,,,-99.99,,2013-05-28 16:22:00,
2013-05-28 09:33:00,56.0,35.0,-100.00,NW,305,5.0,11.0,45,-99.99,,,-99.99,,2013-05-28 16:33:00,
2013-05-28 09:42:00,56.0,35.0,-100.00,NW,305,5.0,11.0,45,-99.99,,,-99.99,,2013-05-28 16:42:00,
2013-05-28 09:52:00,56.0,35.0,-100.00,NW,305,5.0,11.0,45,-99.99,,,-99.99,,2013-05-28 16:52:00,
2013-05-28 10:02:00,58.0,35.0,-100.00,North,1,5.0,12.0,43,-99.99,,,-99.99,,2013-05-28 17:02:00,
2013-05-28 10:12:00,58.0,35.0,-100.00,North,1,5.0,12.0,43,-99.99,,,-99.99,,2013-05-28 17:12:00,
2013-05-28 10:21:00,59.0,39.0,-100.00,NW,305,3.0,10.0,48,-99.99,,,-99.99,,2013-05-28 17:21:00,
2013-05-28 10:22:00,58.0,38.0,-100.00,West,260,5.0,10.0,47,-99.99,,,-99.99,,2013-05-28 17:22:00,
2013-05-28 10:32:00,58.0,38.0,-100.00,West,260,5.0,10.0,47,-99.99,,,-99.99,,2013-05-28 17:32:00,
2013-05-28 10:41:00,58.0,38.0,-100.00,WNW,282,6.0,11.0,48,-99.99,,,-99.99,,2013-05-28 17:41:00,
2013-05-28 10:52:00,58.0,38.0,-100.00,WNW,282,6.0,11.0,48,-99.99,,,-99.99,,2013-05-28 17:52:00,
2013-05-28 11:01:00,59.0,39.0,-100.00,NW,305,3.0,10.0,48,-99.99,,,-99.99,,2013-05-28 18:01:00,
2013-05-28 11:11:00,59.0,39.0,-100.00,NW,305,3.0,10.0,48,-99.99,,,-99.99,,2013-05-28 18:11:00,
2013-05-28 12:11:00,60.0,33.0,-100.00,West,274,11.0,22.0,36,-99.99,,,-99.99,,2013-05-28 19:11:00,
2013-05-28 12:21:00,60.0,33.0,-100.00,West,274,11.0,22.0,36,-99.99,,,-99.99,,2013-05-28 19:21:00,
2013-05-28 12:32:00,60.0,40.0,-100.00,WSW,237,12.0,22.0,47,-99.99,,,-99.99,,2013-05-28 19:32:00,
2013-05-28 12:41:00,61.0,31.0,-100.00,WSW,237,11.0,22.0,32,-99.99,,,-99.99,,2013-05-28 19:41:00,
2013-05-28 12:52:00,61.0,35.0,-100.00,SW,233,12.0,24.0,37,-99.99,,,-99.99,,2013-05-28 19:52:00,
2013-05-28 13:01:00,61.0,30.0,-100.00,WSW,246,11.0,24.0,31,-99.99,,,-99.99,,2013-05-28 20:01:00,
2013-05-28 13:11:00,61.0,30.0,-100.00,WSW,246,11.0,24.0,31,-99.99,,,-99.99,,2013-05-28 20:11:00,
2013-05-28 13:22:00,61.0,35.0,-100.00,WSW,244,12.0,24.0,37,-99.99,,,-99.99,,2013-05-28 20:22:00,
2013-05-28 13:32:00,62.0,39.0,-100.00,WSW,250,8.0,27.0,43,-99.99,,,-99.99,,2013-05-28 20:32:00,
2013-05-28 13:42:00,62.0,39.0,-100.00,WSW,250,8.0,27.0,43,-99.99,,,-99.99,,2013-05-28 20:42:00,
2013-05-28 13:52:00,62.0,33.0,-100.00,West,267,13.0,21.0,33,-99.99,,,-99.99,,2013-05-28 20:52:00,
2013-05-28 14:01:00,62.0,33.0,-100.00,West,267,13.0,21.0,33,-99.99,,,-99.99,,2013-05-28 21:01:00,
2013-05-28 14:11:00,62.0,33.0,-100.00,West,267,13.0,21.0,33,-99.99,,,-99.99,,2013-05-28 21:11:00,
2013-05-28 14:21:00,62.0,37.0,-100.00,SW,226,16.0,27.0,39,-99.99,,,-99.99,,2013-05-28 21:21:00,
2013-05-28 14:33:00,62.0,37.0,-100.00,SW,226,16.0,27.0,39,-99.99,,,-99.99,,2013-05-28 21:33:00,
2013-05-28 14:43:00,63.0,38.0,-100.00,SW,216,12.0,22.0,40,-99.99,,,-99.99,,2013-05-28 21:43:00,
2013-05-28 14:53:00,62.0,37.0,-100.00,SW,227,14.0,24.0,40,-99.99,,,-99.99,,2013-05-28 21:53:00,
2013-05-28 15:02:00,62.0,37.0,-100.00,SW,227,14.0,24.0,40,-99.99,,,-99.99,,2013-05-28 22:02:00,
2013-05-28 15:12:00,63.0,35.0,-100.00,SW,236,14.0,26.0,35,-99.99,,,-99.99,,2013-05-28 22:12:00,
2013-05-28 15:22:00,63.0,35.0,-100.00,SW,236,14.0,26.0,35,-99.99,,,-99.99,,2013-05-28 22:22:00,
2013-05-28 15:32:00,62.0,35.0,-100.00,SW,229,16.0,27.0,36,-99.99,,,-99.99,,2013-05-28 22:32:00,
2013-05-28 15:42:00,63.0,37.0,-100.00,SW,226,17.0,27.0,38,-99.99,,,-99.99,,2013-05-28 22:42:00,
2013-05-28 15:52:00,63.0,34.0,-100.00,SW,229,15.0,22.0,34,-99.99,,,-99.99,,2013-05-28 22:52:00,
2013-05-28 16:02:00,63.0,33.0,-100.00,SW,224,17.0,26.0,33,-99.99,,,-99.99,,2013-05-28 23:02:00,
2013-05-28 16:11:00,63.0,33.0,-100.00,SW,224,17.0,26.0,33,-99.99,,,-99.99,,2013-05-28 23:11:00,
2013-05-28 16:21:00,63.0,36.0,-100.00,SW,226,16.0,23.0,36,-99.99,,,-99.99,,2013-05-28 23:21:00,
2013-05-28 16:32:00,63.0,34.0,-100.00,WSW,241,15.0,27.0,34,-99.99,,,-99.99,,2013-05-28 23:32:00,
2013-05-28 16:42:00,63.0,34.0,-100.00,WSW,241,15.0,27.0,34,-99.99,,,-99.99,,2013-05-28 23:42:00,
2013-05-28 16:52:00,63.0,34.0,-100.00,WSW,241,15.0,27.0,34,-99.99,,,-99.99,,2013-05-28 23:52:00,
2013-05-28 17:02:00,63.0,37.0,-100.00,WSW,237,13.0,24.0,38,-99.99,,,-99.99,,2013-05-29 00:02:00,
2013-05-28 17:11:00,63.0,33.0,-100.00,SW,236,14.0,23.0,33,-99.99,,,-99.99,,2013-05-29 00:11:00,
2013-05-28 17:21:00,63.0,33.0,-100.00,SW,236,14.0,23.0,33,-99.99,,,-99.99,,2013-05-29 00:21:00,
2013-05-28 17:32:00,64.0,33.0,-100.00,WSW,240,14.0,24.0,31,-99.99,,,-99.99,,2013-05-29 00:32:00,
2013-05-28 17:41:00,64.0,32.0,-100.00,WSW,239,13.0,21.0,31,-99.99,,,-99.99,,2013-05-29 00:41:00,
2013-05-28 17:52:00,64.0,35.0,-100.00,WSW,241,12.0,18.0,34,-99.99,,,-99.99,,2013-05-29 00:52:00,
2013-05-28 18:01:00,63.0,34.0,-100.00,WSW,239,14.0,21.0,34,-99.99,,,-99.99,,2013-05-29 01:01:00,
2013-05-28 18:11:00,63.0,33.0,-100.00,WSW,240,15.0,23.0,33,-99.99,,,-99.99,,2013-05-29 01:11:00,
2013-05-28 18:22:00,63.0,36.0,-100.00,WSW,243,16.0,23.0,37,-99.99,,,-99.99,,2013-05-29 01:22:00,
2013-05-28 18:32:00,63.0,36.0,-100.00,WSW,243,16.0,23.0,37,-99.99,,,-99.99,,2013-05-29 01:32:00,
2013-05-28 18:41:00,63.0,36.0,-100.00,WSW,243,16.0,23.0,37,-99.99,,,-99.99,,2013-05-29 01:41:00,
2013-05-28 18:52:00,63.0,35.0,-100.00,WSW,244,12.0,20.0,35,-99.99,,,-99.99,,2013-05-29 01:52:00,
2013-05-28 19:02:00,63.0,35.0,-100.00,WSW,244,12.0,20.0,35,-99.99,,,-99.99,,2013-05-29 02:02:00,
2013-05-28 19:12:00,62.0,37.0,-100.00,WSW,247,11.0,20.0,39,-99.99,,,-99.99,,2013-05-29 02:12:00,
2013-05-28 19:21:00,62.0,37.0,-100.00,WSW,247,11.0,20.0,39,-99.99,,,-99.99,,2013-05-29 02:21:00,
2013-05-28 19:32:00,61.0,38.0,-100.00,WSW,251,11.0,15.0,42,-99.99,,,-99.99,,2013-05-29 02:32:00,
2013-05-28 19:42:00,61.0,38.0,-100.00,WSW,251,11.0,15.0,42,-99.99,,,-99.99,,2013-05-29 02:42:00,
2013-05-28 19:51:00,60.0,37.0,-100.00,WSW,244,9.0,14.0,42,-99.99,,,-99.99,,2013-05-29 02:51:00,
2013-05-28 20:01:00,60.0,36.0,-100.00,WSW,251,8.0,14.0,41,-99.99,,,-99.99,,2013-05-29 03:01:00,
2013-05-28 20:11:00,60.0,36.0,-100.00,WSW,251,8.0,14.0,41,-99.99,,,-99.99,,2013-05-29 03:11:00,
2013-05-28 20:21:00,58.0,37.0,-100.00,WSW,240,11.0,20.0,46,-99.99,,,-99.99,,2013-05-29 03:21:00,
2013-05-28 20:33:00,58.0,37.0,-100.00,WSW,240,11.0,20.0,46,-99.99,,,-99.99,,2013-05-29 03:33:00,
2013-05-28 20:42:00,57.0,39.0,-100.00,SW,232,14.0,20.0,51,-99.99,,,-99.99,,2013-05-29 03:42:00,
2013-05-28 20:43:00,58.0,37.0,-100.00,WSW,240,11.0,20.0,46,-99.99,,,-99.99,,2013-05-29 03:43:00,
2013-05-28 21:02:00,57.0,38.0,-100.00,SW,236,13.0,19.0,49,-99.99,,,-99.99,,2013-05-29 04:02:00,
2013-05-28 21:12:00,57.0,38.0,-100.00,SW,236,13.0,19.0,49,-99.99,,,-99.99,,2013-05-29 04:12:00,
2013-05-28 21:23:00,57.0,39.0,-100.00,SW,232,14.0,20.0,51,-99.99,,,-99.99,,2013-05-29 04:23:00,
2013-05-28 21:33:00,57.0,39.0,-100.00,SW,232,14.0,20.0,51,-99.99,,,-99.99,,2013-05-29 04:33:00,
2013-05-28 21:52:00,57.0,40.0,-100.00,WSW,240,14.0,20.0,52,-99.99,,,-99.99,,2013-05-29 04:52:00,
2013-05-28 22:02:00,57.0,40.0,-100.00,WSW,240,14.0,20.0,52,-99.99,,,-99.99,,2013-05-29 05:02:00,
2013-05-28 22:12:00,56.0,40.0,-100.00,WSW,237,11.0,19.0,55,-99.99,,,-99.99,,2013-05-29 05:12:00,
2013-05-28 22:22:00,56.0,41.0,-100.00,WSW,239,10.0,19.0,57,-99.99,,,-99.99,,2013-05-29 05:22:00,
2013-05-28 22:32:00,57.0,40.0,-100.00,WSW,240,12.0,17.0,53,-99.99,,,-99.99,,2013-05-29 05:32:00,
2013-05-28 22:42:00,57.0,40.0,-100.00,WSW,240,12.0,17.0,53,-99.99,,,-99.99,,2013-05-29 05:42:00,
2013-05-28 22:52:00,56.0,39.0,-100.00,SW,230,8.0,13.0,52,-99.99,,,-99.99,,2013-05-29 05:52:00,
2013-05-28 23:01:00,56.0,39.0,-100.00,SW,230,8.0,13.0,52,-99.99,,,-99.99,,2013-05-29 06:01:00,
2013-05-28 23:11:00,56.0,39.0,-100.00,SW,230,8.0,13.0,52,-99.99,,,-99.99,,2013-05-29 06:11:00,
2013-05-28 23:21:00,53.0,41.0,-100.00,South,185,7.0,10.0,64,-99.99,,,-99.99,,2013-05-29 06:21:00,
2013-05-28 23:31:00,53.0,41.0,-100.00,South,185,7.0,10.0,64,-99.99,,,-99.99,,2013-05-29 06:31:00,
2013-05-28 23:42:00,55.0,38.0,-100.00,South,182,7.0,11.0,52,-99.99,,,-99.99,,2013-05-29 06:42:00,
2013-05-28 23:52:00,55.0,38.0,-100.00,South,182,7.0,11.0,52,-99.99,,,-99.99,,2013-05-29 06:52:00,